User: anonymous   Login
Location: Invercargill
(46.4000°S, 168.3500°E)
Time: 00:46:54
(UTC+13:00)
Language:

Elektron 1 - Orbit

View from above orbital plane
View from above orbital plane
View from above satellite
View from above satellite

Ground track
Ground track

The orbit data is extracted from the following two-line orbital elements,

1   746U 64006A   19291.22794823 +.00000453 +00000-0 +14065-3 0  9993
2   746 060.8534 221.9292 3029936 325.0870 018.3714 09.03641759846702
Epoch (UTC): 18 October 2019 05:28:14
Eccentricity: 0.3029936
inclination: 60.8534°
perigee height: 408 km
apogee height: 6308 km
right ascension of ascending node: 221.9292°
argument of perigee: 325.0870°
revolutions per day: 9.03641759
mean anomaly at epoch: 18.3714°
orbit number at epoch: 84670

The dashed part of the orbit path shows where the satellite is in the earth's shadow,  

DLR